This demonstration page uses our WeatherBlox Daily Observations layout. Learn more.

Left ArrowRight Arrow

Hourly Observations for October 15, 2021

Temp ( °F °C ) Dew Point ( °F °C ) Humidity (%) Winds ( mph kmh ) Pressure ( in mb ) Visibility ( mi km ) Precip ( " mm )
12:56 am 00:56 Mostly Clear 42 5.6 39 3.9 89 89 WSW 5 7 30.06 1018 10 16 N/A
1:56 am 01:56 Clear 39 3.9 36 2.2 89 89 WNW 6 9 30.06 1018 10 16 N/A
2:56 am 02:56 Clear 37 2.8 35 1.7 93 93 NW 8 13 30.08 1019 10 16 N/A
3:56 am 03:56 Clear 36 2.2 34 1.1 93 93 NW 8 13 30.07 1018 10 16 N/A
4:56 am 04:56 Clear 35 1.7 33 0.6 93 93 NW 8 13 30.09 1019 10 16 N/A
5:56 am 05:56 Clear 35 1.7 32 undefined 89 89 NW 8 13 30.11 1020 10 16 N/A
6:56 am 06:56 Clear 34 1.1 31 -0.6 89 89 NW 7 11 30.14 1021 10 16 N/A
7:56 am 07:56 Sunny 32 undefined 29 -1.7 88 88 NW 7 11 30.17 1022 10 16 N/A
8:56 am 08:56 Mostly Cloudy 36 2.2 33 0.6 89 89 WNW 8 13 30.21 1023 10 16 N/A
9:56 am 09:56 Mostly Sunny 40 4.4 34 1.1 79 79 WNW 9 15 30.23 1024 10 16 N/A
10:56 am 10:56 Sunny 48 8.9 36 2.2 63 63 WNW 12 19 30.23 1024 10 16 N/A
11:56 am 11:56 Sunny 52 11.1 33 0.6 49 49 WNW 15 24 30.22 1024 10 16 N/A
12:56 pm 12:56 Sunny 55 12.8 32 undefined 42 42 WNW 13 20 30.20 1023 10 16 N/A
1:56 pm 13:56 Sunny 55 12.8 31 -0.6 40 40 NW 21 33 30.18 1022 10 16 N/A
2:56 pm 14:56 Partly Cloudy 56 13.3 24 -4.4 29 29 NW 22 35 30.16 1022 10 16 N/A
3:56 pm 15:56 Cloudy 56 13.3 25 -3.9 30 30 WNW 23 37 30.17 1022 10 16 N/A
4:56 pm 16:56 Cloudy 56 13.3 24 -4.4 29 29 WNW 18 30 30.19 1022 10 16 N/A
5:56 pm 17:56 Mostly Cloudy 55 12.8 25 -3.9 31 31 NW 18 30 30.20 1023 10 16 N/A
6:56 pm 18:56 Clear 49 9.4 27 -2.8 43 43 WNW 8 13 30.22 1023 10 16 N/A
7:56 pm 19:56 Clear 48 8.9 27 -2.8 44 44 W 6 9 30.23 1024 10 16 N/A
8:56 pm 20:56 Clear 46 7.8 27 -2.8 47 47 W 8 13 30.24 1024 10 16 N/A
9:56 pm 21:56 Clear 43 6.1 26 -3.3 51 51 W 7 11 30.25 1024 10 16 N/A
10:56 pm 22:56 Clear 42 5.6 26 -3.3 53 53 WSW 6 9 30.26 1025 10 16 N/A
11:56 pm 23:56 Clear 42 5.6 26 -3.3 53 53 W 7 11 30.25 1024 10 16 N/A

Powered by AerisWeather